Regional Weather Roundup
Issued by NWS

Home | Current Version | Previous Version | Graphics & Text | Print | Product List | Glossary On
Versions: 1 2 3 4 5 6 7 8 9 10 11 12 13 14 15 16 17 18 19 20 21 22 23 24 25 26 27 28 29 30 31 32 33 34 35 36 37 38 39 40 41 42 43 44 45 46 47 48 49 50
000
ASUS45 KBOI 300210
RWRID

IDAHO REGIONAL WEATHER ROUNDUP
NATIONAL WEATHER SERVICE BOISE ID
800 PM MDT WED JUL 29 2015

NOTE: "FAIR" INDICATES FEW OR NO CLOUDS BELOW 12000 FEET
WITH NO SIGNIFICANT WEATHER AND/OR OBSTRUCTIONS TO VISIBILITY

IDZ012-014-300300-
SOUTHWEST IDAHO


CITY           SKY/WX    TMP DP  RH WIND       PRES   REMARKS
BOISE          SUNNY     86  31  13 NW8       30.13S
CALDWELL       SUNNY     84  34  16 W9        30.13S
$$

IDZ016-017-300300-
SOUTHCENTRAL IDAHO


CITY           SKY/WX    TMP DP  RH WIND       PRES   REMARKS
BURLEY         CLEAR     80  41  24 CALM      30.19F
JEROME         CLEAR     79  42  26 W3        30.20F
TWIN FALLS     CLEAR     82  33  17 NW7       30.19S
$$

IDZ019>023-300300-
SOUTHEAST IDAHO


CITY           SKY/WX    TMP DP  RH WIND       PRES   REMARKS
IDAHO FALLS    CLEAR     79  30  16 E3        30.27S
POCATELLO      PTCLDY    81  33  17 CALM      30.25S
REXBURG        CLEAR     76  32  20 CALM      30.28S
$$

IDZ006-010-011-018-031-032-300300-
CENTRAL IDAHO MOUNTAINS


CITY           SKY/WX    TMP DP  RH WIND       PRES   REMARKS
MCCALL         SUNNY     76  31  19 S6        30.26S
HAILEY         CLEAR     75  39  27 SE7       30.29S
STANLEY          N/A     74  28  18 VRB6      30.35R
SALMON         SUNNY     79  45  29 W5        30.17S
CHALLIS        SUNNY     77  44  30 NW5       30.22F
$$

IDZ002-004-006-007-026-300300-
NORTHERN IDAHO


CITY           SKY/WX    TMP DP  RH WIND       PRES   REMARKS
LEWISTON       SUNNY     92  32  12 N6        30.06F
LOWELL           N/A     73  48  41 N6        30.08S
COEUR D`ALENE  SUNNY     84  32  15 SW8       30.10F
MULLAN PASS    SUNNY     66  36  32 MISG      30.34S
$$



USA.gov is the U.S. government's official web portal to all federal, state and local government web resources and services.